Wind_Speed
24 23 23 23 23 24 24 24 21 20 19 19 19 18 24 29 33 35 30 30 27 23 23 19 15 16 20 11 14 17 17 25 22 17 14 21 19 25 21 22 20 15 20 25
24 23 22 23 23 24 24 24 20 21 20 19 22 23 24 27 32 32 28 24 30 28 26 26 25 21 22 17 23 21 20 26 24 17 17 24 16 23 12 13 16 21 32 35
24 23 23 23 23 24 24 24 24 26 22 23 17 18 27 27 31 35 27 19 30 33 33 30 26 23 23 29 25 30 30 29 30 24 17 15 13 17 20 17 20 27 24 25
24 24 24 24 23 22 23 25 28 23 24 25 25 23 22 30 24 28 23 22 28 34 37 33 21 20 20 22 25 28 27 30 33 26 18 26 33 23 18 18 26 21 27 31
25 25 23 24 25 24 24 25 19 15 19 20 25 24 27 27 24 22 15 22 22 28 32 37 29 22 27 28 28 29 23 24 34 31 24 21 34 30 20 18 8 13 29 26
26 25 23 22 24 24 24 20 23 24 24 22 17 22 28 28 26 23 25 18 12 23 24 37 42 33 32 33 34 23 17 24 34 39 23 13 22 17 20 25 20 23 25 27
27 25 22 22 23 23 23 23 24 23 24 26 28 29 29 28 26 27 30 33 31 31 31 39 40 37 38 33 33 30 17 22 30 38 25 24 25 18 21 23 26 27 29 29
28 26 24 23 22 24 23 23 23 22 24 25 28 34 28 24 21 25 20 38 33 39 39 25 34 39 35 37 33 29 20 19 28 32 34 27 28 29 27 27 31 36 39 35
30 28 24 23 22 24 24 23 24 23 25 30 31 27 23 25 30 26 34 35 35 32 44 34 31 36 30 42 39 37 32 24 24 28 34 33 32 36 36 33 38 39 39 41
30 29 25 23 22 24 24 24 26 24 23 31 27 25 23 22 27 29 26 28 30 25 25 38 31 33 34 34 47 43 39 36 32 29 35 41 40 38 38 37 37 45 47 49
30 30 27 24 22 23 23 23 24 22 20 29 24 21 22 21 20 14 15 20 31 26 31 35 38 38 35 40 42 47 41 45 39 46 45 44 46 44 43 39 41 45 52 58
31 30 28 25 22 22 22 22 23 19 19 24 19 24 22 19 21 21 18 23 28 30 27 46 44 29 36 11 24 39 31 11 23 35 45 36 45 32 50 40 35 36 27 30
32 31 30 26 23 20 20 22 22 20 17 19 20 23 20 16 21 21 19 19 27 37 38 23 41 39 26 33 34 24 22 20 31 27 31 24 26 14 27 31 19 21 15 32
33 32 31 27 24 22 19 19 20 22 17 17 20 20 17 19 22 22 22 24 22 23 20 28 27 26 26 23 31 28 25 23 21 31 26 41 29 26 18 39 32 31 28 21
34 33 31 28 24 23 21 19 18 18 19 16 17 19 18 17 22 24 24 23 24 23 22 23 27 32 31 32 27 24 10 8 19 34 22 19 14 19 3 10 15 22 25 27
34 34 31 30 25 22 21 19 17 17 16 16 16 15 14 13 17 21 23 23 24 25 25 25 33 29 23 11 8 7 12 10 8 17 22 13 20 20 13 15 18 21 25 29
34 33 31 32 27 23 20 19 16 16 13 13 15 15 13 13 14 21 22 24 24 24 26 24 29 27 27 19 25 25 26 23 15 11 9 17 17 14 19 21 23 24 27 29
32 33 32 34 30 25 21 19 16 16 13 13 14 18 17 14 14 17 21 23 23 23 24 26 30 28 30 30 24 28 26 22 23 15 15 23 23 21 23 25 27 30 32 32
34 31 31 35 33 26 23 19 16 16 14 13 16 14 11 14 15 17 18 19 22 24 26 27 29 28 29 28 26 26 28 27 24 24 24 26 25 24 25 30 30 31 32 32
34 31 30 32 33 30 24 20 17 16 16 13 15 12 10 12 15 18 18 17 18 21 23 27 30 33 28 30 28 28 31 31 31 28 27 29 29 28 26 26 28 31 30 31
32 31 31 28 29 29 27 22 18 16 16 14 13 12 13 8 13 16 19 17 18 18 21 22 25 26 25 27 25 29 31 29 27 26 26 26 23 22 23 25 26 28 29 30
30 32 31 30 29 28 29 26 22 18 19 18 12 13 16 12 11 14 14 15 12 16 19 21 23 21 20 23 28 31 25 22 22 21 21 23 25 25 24 24 25 26 29 31
27 32 33 32 32 31 30 26 22 19 18 18 17 16 17 19 20 20 17 13 17 19 18 16 21 18 18 27 21 27 22 21 20 21 23 24 27 26 26 27 28 28 30 31
25 31 33 34 32 29 26 26 23 23 21 22 20 15 15 15 19 20 19 15 11 13 14 18 18 13 14 18 15 16 21 22 23 24 25 26 26 27 29 29 30 30 29 30
24 29 32 32 29 27 24 23 21 19 20 23 22 22 18 17 18 19 17 16 18 18 20 14 11 12 10 15 20 8 12 25 21 22 24 25 26 28 29 29 29 28 28 31
24 27 30 28 23 25 24 23 22 19 23 27 24 22 20 20 18 18 19 21 18 15 16 15 14 17 14 13 12 7 6 12 19 22 21 23 25 26 26 26 29 29 28 27
27 30 30 25 22 25 25 26 25 24 25 17 21 21 21 17 17 17 19 18 18 17 17 16 14 15 15 15 15 16 17 18 21 19 20 22 23 23 22 24 24 27 28 28
Wind_Direction
228 227 228 225 223 225 224 227 224 226 226 222 223 218 214 211 218 222 222 214 218 204 186 208 270 243 237 265 279 234 203 199 185 195 234 267 276 220 210 211 206 237 273 285
223 224 223 224 221 222 223 224 216 224 222 220 219 216 212 217 226 216 233 223 207 215 187 200 211 232 258 215 238 255 213 230 190 192 205 250 241 204 220 233 222 261 274 280
222 221 217 217 217 218 219 221 221 223 217 221 219 230 216 209 229 235 239 238 204 206 195 195 201 212 235 242 221 240 218 230 207 203 200 243 274 224 209 229 253 255 268 285
222 220 214 212 211 214 217 220 226 219 223 222 214 216 225 227 220 241 240 231 223 205 205 194 191 198 231 241 243 252 248 239 205 195 221 221 235 215 222 258 256 254 285 288
217 220 214 213 216 218 224 230 238 242 239 228 240 226 224 231 232 228 242 230 225 229 219 201 189 193 206 233 234 250 246 229 210 195 230 251 224 225 210 244 218 270 278 290
216 219 219 218 219 219 225 224 225 223 219 225 234 232 235 235 232 230 213 211 228 223 211 206 206 200 207 218 240 238 230 221 208 202 214 231 240 224 213 221 220 233 245 274
216 217 219 221 220 221 222 223 230 229 226 225 229 240 240 235 240 235 226 212 204 189 228 212 206 217 210 213 227 242 243 227 208 213 196 211 234 240 220 233 221 243 248 260
216 218 220 221 221 220 219 222 226 226 227 231 237 244 238 235 234 258 223 219 225 196 212 256 220 223 220 209 219 230 242 210 214 212 202 207 227 232 243 238 242 243 244 251
217 218 220 222 225 221 221 223 224 226 227 233 237 247 246 250 237 215 217 207 212 220 218 222 225 227 216 216 216 213 223 223 221 200 204 208 221 231 236 240 247 249 246 247
216 217 218 222 224 222 222 225 226 228 233 242 237 245 256 250 229 230 223 208 206 213 223 222 233 235 225 227 218 211 211 214 216 214 218 219 221 227 232 237 242 254 258 259
216 215 217 221 222 221 224 225 225 233 239 242 232 237 244 245 238 231 228 262 220 213 209 206 222 231 239 240 224 217 219 209 211 217 221 230 228 230 227 234 240 243 252 258
215 215 215 216 219 218 222 223 221 234 238 240 230 234 241 234 228 223 214 218 234 219 216 207 215 242 237 284 227 251 234 228 214 238 229 258 218 230 231 242 248 257 231 241
214 215 213 212 215 217 218 221 222 232 238 235 230 234 238 231 226 225 216 224 214 207 235 212 212 230 276 264 269 258 251 234 226 237 254 255 264 235 223 241 244 243 229 247
212 214 214 209 213 215 215 217 224 227 235 239 236 242 239 234 217 218 219 221 210 233 227 231 245 237 254 269 258 278 263 237 243 252 265 247 265 244 237 246 248 260 277 292
212 213 215 207 212 215 215 218 223 229 236 245 239 226 232 234 213 209 217 223 222 224 232 248 246 247 260 261 264 267 231 212 255 246 261 243 277 44 345 307 296 285 283 283
212 212 216 204 207 212 214 218 224 230 237 240 227 220 224 228 217 210 211 218 223 223 230 241 251 253 266 247 252 288 288 228 139 271 248 252 270 288 268 284 285 278 281 282
212 212 216 203 205 209 212 216 220 225 236 227 217 218 225 226 213 210 212 216 221 224 227 229 252 256 263 274 292 288 278 280 305 273 221 251 269 273 269 268 274 278 283 285
212 211 216 205 204 207 211 217 218 215 225 223 216 215 209 213 211 210 214 220 225 229 234 235 240 248 258 265 263 268 274 281 291 283 257 282 276 279 281 282 283 287 289 287
209 211 214 209 205 204 213 215 217 210 216 218 221 225 222 226 214 208 210 218 223 228 232 238 246 248 250 256 259 260 269 274 276 270 261 265 272 272 277 284 283 283 289 289
206 207 210 206 204 209 211 215 215 209 210 218 222 219 231 229 221 216 209 221 230 231 235 238 242 248 252 254 260 262 263 264 261 265 268 271 276 286 283 280 284 288 289 288
203 203 206 206 208 210 213 216 214 210 206 215 221 209 215 234 204 223 227 223 230 233 233 237 243 251 258 259 259 256 254 259 260 267 275 277 272 272 270 274 277 280 284 287
195 198 200 203 206 207 210 213 212 207 204 213 211 202 206 199 187 227 237 236 247 250 250 251 247 244 244 257 259 257 258 255 255 256 260 267 271 274 276 280 278 279 282 284
196 195 195 197 204 206 207 211 211 209 208 210 213 212 213 216 233 236 236 243 261 266 251 264 245 236 241 255 207 226 244 246 243 250 256 263 270 274 275 276 277 277 278 281
198 195 196 197 203 204 207 208 211 211 209 211 218 219 222 223 230 239 240 240 227 231 258 262 275 264 269 279 281 236 231 246 253 253 258 261 265 267 270 270 272 273 279 280
193 192 193 195 198 201 204 205 205 208 214 215 213 216 223 230 236 243 253 251 248 255 278 259 282 298 290 272 292 266 268 240 253 260 259 258 261 264 266 268 273 276 284 285
189 189 189 191 193 200 198 199 198 214 209 214 212 216 222 233 236 242 250 251 251 250 260 281 286 294 292 294 316 220 256 261 254 256 263 267 266 268 273 277 281 280 279 289
185 185 183 182 190 193 196 202 208 214 200 202 209 215 225 223 226 241 257 262 255 250 255 271 282 289 291 294 290 275 268 263 264 275 277 275 283 282 283 290 287 280 281 282
Height
5792 5796 5800 5804 5808 5811 5816 5819 5823 5827 5830 5834 5836 5842 5844 5847 5848 5849 5852 5858 5863 5864 5869 5873 5876 5877 5879 5882 5882 5883 5886 5890 5890 5894 5896 5899 5899 5901 5906 5907 5911 5913 5913 5912
5787 5790 5794 5798 5802 5806 5810 5814 5818 5820 5824 5828 5830 5833 5837 5841 5843 5843 5845 5851 5858 5862 5864 5867 5870 5875 5877 5879 5880 5881 5884 5884 5888 5889 5893 5896 5895 5899 5902 5905 5906 5905 5909 5907
5781 5785 5790 5793 5797 5800 5805 5808 5811 5813 5817 5821 5826 5829 5831 5833 5838 5838 5842 5847 5849 5855 5858 5861 5866 5870 5874 5873 5876 5876 5879 5879 5884 5886 5891 5895 5894 5898 5900 5903 5902 5901 5904 5902
5776 5780 5784 5788 5791 5795 5799 5801 5803 5809 5812 5815 5817 5820 5825 5827 5829 5833 5837 5840 5844 5848 5852 5857 5862 5863 5868 5869 5871 5872 5875 5875 5879 5883 5885 5888 5889 5890 5896 5898 5899 5899 5898 5896
5770 5774 5778 5783 5786 5789 5793 5796 5803 5808 5810 5811 5815 5816 5817 5820 5823 5826 5830 5834 5840 5844 5848 5853 5852 5856 5860 5859 5860 5864 5867 5868 5874 5876 5879 5883 5886 5886 5890 5896 5896 5895 5891 5887
5765 5769 5773 5777 5780 5784 5787 5793 5795 5799 5802 5805 5808 5810 5811 5814 5819 5823 5824 5828 5833 5839 5842 5841 5844 5848 5852 5856 5856 5859 5859 5863 5866 5871 5876 5880 5881 5884 5885 5890 5890 5886 5887 5881
5759 5764 5767 5772 5775 5778 5782 5786 5789 5793 5796 5798 5799 5800 5803 5807 5811 5815 5819 5820 5821 5829 5828 5830 5833 5839 5846 5850 5853 5852 5853 5857 5860 5865 5873 5875 5876 5879 5883 5881 5879 5883 5881 5879
5753 5758 5762 5766 5769 5773 5777 5780 5784 5788 5791 5793 5793 5790 5799 5801 5806 5807 5811 5814 5816 5821 5819 5821 5835 5835 5841 5844 5848 5851 5851 5850 5853 5858 5865 5871 5873 5875 5878 5878 5879 5877 5877 5876
5747 5752 5756 5760 5763 5767 5771 5775 5779 5782 5785 5786 5788 5790 5794 5795 5795 5795 5795 5802 5810 5815 5816 5822 5827 5829 5832 5836 5838 5842 5844 5848 5849 5853 5858 5861 5864 5866 5868 5873 5872 5870 5870 5868
5741 5745 5750 5755 5758 5762 5766 5769 5773 5777 5781 5778 5782 5786 5788 5790 5791 5793 5801 5803 5804 5809 5815 5820 5817 5816 5823 5826 5831 5835 5837 5842 5845 5847 5849 5852 5854 5858 5861 5865 5872 5862 5861 5862
5735 5740 5745 5750 5753 5757 5761 5765 5768 5772 5775 5772 5776 5781 5784 5786 5789 5795 5800 5800 5801 5804 5803 5807 5805 5807 5812 5816 5821 5825 5830 5830 5834 5835 5836 5842 5845 5849 5855 5857 5859 5859 5856 5849
5729 5734 5740 5745 5748 5752 5757 5760 5763 5767 5769 5769 5773 5774 5778 5782 5783 5785 5790 5792 5794 5798 5802 5795 5799 5803 5808 5809 5815 5818 5822 5822 5827 5831 5829 5831 5829 5839 5848 5850 5852 5849 5852 5852
5723 5729 5734 5739 5744 5748 5752 5755 5759 5761 5764 5765 5768 5769 5773 5779 5780 5782 5784 5786 5788 5794 5789 5792 5797 5801 5805 5806 5810 5816 5819 5821 5825 5826 5821 5826 5830 5825 5834 5837 5841 5845 5844 5845
5717 5723 5729 5734 5739 5744 5748 5751 5754 5757 5760 5761 5763 5766 5770 5773 5776 5778 5779 5783 5789 5790 5792 5796 5798 5802 5805 5808 5812 5813 5816 5820 5822 5819 5824 5825 5825 5818 5826 5827 5833 5834 5838 5836
5711 5717 5724 5729 5734 5739 5743 5747 5750 5752 5756 5757 5759 5761 5764 5767 5771 5775 5776 5779 5784 5788 5791 5793 5793 5796 5801 5806 5809 5812 5810 5814 5816 5809 5814 5819 5812 5785 5805 5819 5822 5824 5828 5830
5705 5712 5718 5724 5730 5735 5739 5744 5746 5748 5750 5752 5755 5759 5761 5763 5767 5772 5775 5778 5781 5784 5788 5791 5787 5793 5797 5798 5803 5802 5805 5805 5807 5815 5813 5813 5811 5815 5814 5818 5824 5825 5824 5822
5699 5706 5713 5719 5725 5730 5735 5739 5742 5744 5746 5749 5752 5755 5758 5760 5763 5766 5770 5774 5778 5782 5785 5790 5785 5788 5791 5795 5794 5794 5799 5803 5806 5810 5808 5812 5812 5814 5816 5817 5818 5818 5818 5816
5694 5701 5707 5714 5720 5726 5731 5734 5738 5741 5744 5746 5748 5750 5754 5757 5760 5763 5767 5770 5773 5777 5780 5784 5785 5789 5789 5793 5797 5794 5796 5801 5801 5804 5804 5805 5809 5809 5810 5809 5810 5808 5806 5807
5688 5695 5702 5708 5716 5722 5726 5731 5734 5738 5742 5743 5745 5749 5754 5755 5758 5760 5764 5767 5770 5773 5775 5778 5780 5783 5786 5789 5791 5792 5792 5794 5797 5798 5799 5800 5802 5804 5805 5802 5802 5799 5798 5796
5683 5691 5698 5704 5711 5716 5723 5727 5732 5735 5738 5740 5743 5748 5750 5752 5755 5758 5762 5764 5766 5768 5772 5773 5775 5776 5782 5783 5785 5786 5787 5786 5788 5791 5792 5791 5794 5795 5793 5790 5790 5790 5790 5787
5680 5687 5694 5700 5706 5713 5719 5724 5728 5732 5736 5739 5742 5746 5747 5749 5752 5754 5757 5760 5762 5764 5766 5768 5770 5771 5773 5773 5776 5776 5776 5778 5780 5782 5784 5784 5786 5787 5786 5785 5787 5785 5783 5781
5673 5681 5689 5696 5703 5709 5714 5719 5724 5729 5733 5736 5740 5744 5745 5746 5749 5752 5755 5756 5758 5759 5762 5763 5763 5766 5769 5768 5767 5766 5769 5771 5774 5775 5775 5777 5778 5779 5778 5778 5777 5776 5775 5774
5670 5677 5684 5691 5697 5703 5710 5716 5722 5727 5730 5733 5736 5740 5743 5746 5747 5749 5751 5754 5754 5756 5757 5759 5759 5764 5764 5765 5738 5756 5765 5766 5767 5770 5772 5772 5772 5772 5772 5772 5771 5770 5769 5768
5668 5674 5681 5687 5694 5702 5708 5713 5718 5723 5727 5729 5732 5736 5739 5742 5744 5745 5746 5750 5752 5745 5752 5755 5757 5760 5758 5752 5745 5751 5757 5759 5762 5763 5766 5767 5767 5766 5766 5765 5764 5763 5761 5760
5665 5672 5678 5685 5692 5698 5705 5710 5716 5720 5723 5726 5729 5732 5736 5738 5740 5741 5743 5746 5747 5749 5748 5749 5750 5753 5754 5753 5750 5744 5753 5755 5755 5757 5759 5760 5759 5759 5759 5758 5757 5756 5756 5754
5664 5670 5677 5684 5691 5696 5702 5707 5712 5714 5717 5720 5724 5728 5732 5734 5736 5738 5740 5740 5742 5745 5745 5745 5746 5747 5749 5749 5748 5747 5749 5751 5751 5753 5753 5752 5751 5752 5752 5750 5748 5748 5746 5744
5662 5668 5675 5682 5688 5693 5699 5702 5704 5707 5712 5717 5721 5725 5728 5730 5732 5735 5736 5739 5740 5741 5742 5743 5743 5743 5743 5743 5743 5745 5746 5746 5747 5747 5745 5743 5744 5744 5744 5741 5740 5738 5736 5736